Regional Weather Roundup
Issued by NWS

Home | Current Version | Previous Version | Text Only | Print | Product List | Glossary Off
Versions: 1 2 3 4 5 6 7 8 9 10 11 12 13 14 15 16 17 18 19 20 21 22 23 24 25 26 27 28 29 30 31 32 33 34 35 36 37 38 39 40 41 42 43 44 45 46 47 48 49 50

000
ASUS43 KFSD 162110
RWRSD

WEATHER ROUNDUP FOR SOUTH DAKOTA
NATIONAL WEATHER SERVICE SIOUX FALLS SD
300 PM CST TUE JAN 16 2018

NOTE: "FAIR" INDICATES FEW OR NO CLOUDS BELOW 12,000 FEET WITH NO
SIGNIFICANT WEATHER AND/OR OBSTRUCTIONS TO VISIBILITY.


SDZ001>005-009-010-012>017-162200-
NORTHWEST AND NORTH CENTRAL SOUTH DAKOTA

CITY           SKY/WX    TMP DP  RH WIND       PRES   REMARKS
BUFFALO          N/A     10  -4  53 S9        30.21  WCI  -3
FAITH            N/A      9   1  70 S22       30.35F WCI -11
MOBRIDGE       SUNNY     15  -4  42 S15       30.47F WCI   0
$$

SDZ012>016-024>037-041>051-057-063-072>074-162200-
SOUTHWEST AND SOUTH CENTRAL SOUTH DAKOTA

CITY           SKY/WX    TMP DP  RH WIND       PRES   REMARKS
RAPID CTY ARPT SUNNY     26   6  42 S15       30.32F WCI  14
PIERRE         SUNNY     15  -1  49 S13       30.53F WCI   1
CUSTER         SUNNY     32 -16  12 W7        30.23F WCI  26
ELLSWORTH AFB  SUNNY     26   4  39 S12       30.30F WCI  15
PHILIP         SUNNY     20   5  52 S13       30.45F WCI   7
PINE RIDGE     SUNNY     25   3  38 S13       30.38F WCI  14
SPEARFISH        N/A     32  10  40 CALM      30.26F
WINNER         FAIR      15   2  56 S12       30.55F WCI   2
$$

SDZ004>011-016>023-039-040-162200-
NORTHEAST SOUTH DAKOTA

CITY           SKY/WX    TMP DP  RH WIND       PRES   REMARKS
ABERDEEN       SUNNY     10  -3  55 S10       30.60F WCI  -4
WATERTOWN      SUNNY      8   1  73 SW8       30.57F WCI  -4
BROOKINGS      SUNNY      9   1  70 W6        30.61F WCI  -1
SISSETON         N/A     10  -1  61 SW5       30.61F WCI   2
$$

SDZ017-020-022-023-036>040-048>070-162200-
SOUTHEAST SOUTH DAKOTA

CITY           SKY/WX    TMP DP  RH WIND       PRES   REMARKS
SIOUX FALLS    SUNNY      6  -1  73 W6        30.65F WCI  -4
HURON          SUNNY      8  -1  66 S6        30.64F WCI  -2
CHAMBERLAIN    SUNNY     12   0  57 S6        30.60F WCI   3
MITCHELL       SUNNY      6  -2  69 SW7       30.67F WCI  -6
YANKTON        SUNNY      9   0  67 W8        30.69F WCI  -3
$$

ABBREVIATIONS USED IN REMARKS
   TC - TEMPERATURE IN CELSIUS
  WCI - WIND CHILL INDEX
   HX - HEAT INDEX
  VSB - VISIBILITY





USA.gov is the U.S. government's official web portal to all federal, state and local government web resources and services.